User: anonymous   Login
Location: Unspecified
(0.0000°N, 0.0000°E)
Time: 18:00:10
(UTC+00:00)
Language:

OBJECT A - Orbit

View from above orbital plane
View from above orbital plane
View from above satellite
View from above satellite

Ground track
Ground track

The orbit data is extracted from the following two-line orbital elements,

1 43613U 18070A   18343.90383653 +.00000266 +00000-0 +94342-5 0  9990
2 43613 092.0052 271.7273 0002530 086.8007 273.3532 15.28277171013049
Epoch (UTC): 09 December 2018 21:41:31
Eccentricity: 0.0002530
inclination: 92.0052°
perigee height: 479 km
apogee height: 483 km
right ascension of ascending node: 271.7273°
argument of perigee: 86.8007°
revolutions per day: 15.28277171
mean anomaly at epoch: 273.3532°
orbit number at epoch: 1304

The dashed part of the orbit path shows where the satellite is in the earth's shadow,  

DLR